Live≪ 3e Cross-Duathlon du Haricot 2015 ≫

Le 04/10/2015 Attention événement 2015 !!! Calendrier 2017



Suivez en direct le live de "3e Cross-Duathlon du Haricot 2015", Sun 04 October 2015

du

Cross-Du M

Cross-Du M
Scratch Nom Prénom Club Temps Cat. Clt. Cat. CaP1 #1 Vélo #2 CaP2 Course
0001 318 CHAMBELLAND Cyril COTE D'OPALE TRIATHLON CALAIS SAINT OMER 01:18:36 SE M 1 00:21:49 00:00:52 00:44:15 00:00:46 00:10:56 Cross-Du M
0002 153 FAUVEZ Sebastien 01:19:04 SE M 2 00:21:49 00:01:26 00:43:42 00:00:56 00:11:13 Cross-Du M
0003 359 LEVASSEUR Nicolas AC BOURTHES 01:19:57 SE M 3 00:22:37 00:01:11 00:43:10 00:01:01 00:12:00 Cross-Du M
0004 339 HADOUX Emmanuel 01:20:39 VE M 1 00:21:51 00:01:03 00:45:45 00:00:58 00:11:04 Cross-Du M
0005 328 DELAMOTTE Florent TRIATHLON LITTORAL 59 01:21:05 SE M 4 00:22:50 00:01:05 00:44:42 00:00:54 00:11:36 Cross-Du M
0006 314 DEVOLDERE Niki TEAM BIKESENSATION 01:21:18 SE M 5 00:24:10 00:01:17 00:42:53 00:00:58 00:12:01 Cross-Du M
0007 94 RICOUART Gerard TEAM RICOUART 01:21:38 SE M 6 00:23:10 00:01:30 00:44:25 00:00:58 00:11:37 Cross-Du M
0008 207 GODDAER Jan CCCE TRIATHLON CLUB 01:21:42 VE M 2 00:23:28 00:01:06 00:44:28 00:00:59 00:11:42 Cross-Du M
0009 288 MARCQ Julien TRIATHLON LITTORAL 59 01:21:45 SE M 7 00:22:17 00:01:18 00:46:01 00:01:04 00:11:09 Cross-Du M
0010 92 TOURNANT Robin REIMS TRIATHLON 01:22:21 JU M 1 00:22:17 00:01:13 00:45:35 00:00:54 00:12:24 Cross-Du M
0011 151 WORME Jonathan LYS CALAIS TRIATHLON 01:23:04 SE M 8 00:23:22 00:01:07 00:45:07 00:01:05 00:12:25 Cross-Du M
0012 279 CITERNE Julien TRIATHLON CLUB DE LIEVIN 01:23:28 JU M 2 00:21:50 00:01:01 00:48:41 00:00:56 00:11:01 Cross-Du M
0013 293 BIGAN Mathieu LYS CALAIS TRIATHLON 01:23:35 SE M 9 00:22:58 00:01:04 00:47:01 00:01:04 00:11:31 Cross-Du M
0014 319 NOWE Arnaud TRIATHLON LITTORAL 59 01:23:46 VE M 3 00:21:03 00:00:50 00:50:28 00:00:55 00:10:32 Cross-Du M
0015 354 CASTEL Christophe COTE D'OPALE TRIATHLON CALAIS SAINT OMER 01:23:49 SE M 10 00:23:36 00:01:02 00:45:30 00:00:56 00:12:48 Cross-Du M
0016 251 DRANSART Adrien BERCK OAPEL SUD TRIATHLON 01:23:53 SE M 11 00:23:04 00:01:05 00:46:58 00:01:07 00:11:40 Cross-Du M
0017 246 BRUNOT Yoann SKWAL ATHLON 01:24:26 VE M 4 00:23:14 00:01:23 00:47:01 00:01:05 00:11:45 Cross-Du M
0018 93 TOURNANT David FREE IRON TEAM 01:24:42 VE M 5 00:24:43 00:01:22 00:45:29 00:01:14 00:11:56 Cross-Du M
0019 372 LHERBIER David 01:25:05 SE M 12 00:24:45 00:01:13 00:45:36 00:01:13 00:12:20 Cross-Du M
0020 210 DESCAMPS Pascal TRIATHLON LITTORAL 59 01:25:12 VE M 6 00:23:15 00:01:03 00:47:58 00:01:03 00:11:56 Cross-Du M
0021 98 MICHEL Vivien 01:25:34 SE M 13 00:23:29 00:01:16 00:44:19 00:01:16 00:15:17 Cross-Du M
0022 203 MIEZE Sebastien GRAVELINES TRIATHLON 01:25:40 SE M 14 00:25:03 00:01:12 00:45:58 00:01:02 00:12:27 Cross-Du M
0023 248 SKRYPCZAK David BERCK OAPEL SUD TRIATHLON 01:25:50 SE M 15 00:25:04 00:01:52 00:45:17 00:01:15 00:12:25 Cross-Du M
0024 260 BONNIERE Romain GRAVELINES TRIATHLON 01:26:18 SE M 16 00:25:05 00:01:29 00:45:42 00:01:05 00:12:58 Cross-Du M
0025 240 BELLENGUEZ Julien TRIATHLON CLUB BOULONNAIS 01:26:26 SE M 17 00:24:25 00:01:31 00:47:24 00:01:01 00:12:07 Cross-Du M
0026 91 DELERUE Patrik 01:26:27 VE M 7 00:25:35 00:01:01 00:46:45 00:00:56 00:12:12 Cross-Du M
0027 148 DELVOYE Mickael GRAVELINES TRIATHLON 01:26:35 SE M 18 00:22:26 00:01:02 00:49:57 00:01:08 00:12:04 Cross-Du M
0028 340 PLUY Patrick TRIATHLON LITTORAL 59 01:26:41 VE M 8 00:24:57 00:01:20 00:46:57 00:01:07 00:12:22 Cross-Du M
0029 360 THULLIER Guillaume 01:26:48 SE M 19 00:23:54 00:01:00 00:49:43 00:00:49 00:11:25 Cross-Du M
0030 259 LOGEZ Guillaume TRIATHLON CLUB DE LIEVIN 01:26:52 SE M 20 00:23:54 00:01:12 00:48:15 00:01:06 00:12:26 Cross-Du M
0031 97 LAMBLIN Jean-francois LYS CALAIS TRIATHLON 01:26:54 SE M 21 00:23:23 00:01:19 00:48:52 00:01:11 00:12:11 Cross-Du M
0032 181 VERMEULEN David 01:27:44 SE M 22 00:24:13 00:01:41 00:47:29 00:01:07 00:13:15 Cross-Du M
0033 218 QUIQUET Christophe TRIATHLON CLUB BOULONNAIS 01:28:04 VE M 9 00:25:11 00:01:14 00:46:58 00:01:13 00:13:31 Cross-Du M
0034 369 REQUENA Hervé TRIATHLON LITTORAL 59 01:28:09 VE M 10 00:24:03 00:01:22 00:49:10 00:01:30 00:12:06 Cross-Du M
0035 368 ROY Simon TEAM VTT ATTICHES 01:28:31 SE M 23 00:24:53 00:01:54 00:47:36 00:01:18 00:12:52 Cross-Du M
0036 358 MEYERS Laurane COTE D'OPALE TRIATHLON CALAIS SAINT OMER 01:28:32 JU F 1 00:25:28 00:01:17 00:47:46 00:01:18 00:12:46 Cross-Du M
0037 2 NAVE Christophe 01:28:39 VE M 11 00:25:27 00:01:16 00:47:55 00:01:09 00:12:54 Cross-Du M
0038 278 DUFOUR David LES CHTIS COUREURS FLAMANDS DE BAVINCHOVE 01:28:57 VE M 12 00:23:40 00:01:04 00:50:53 00:01:16 00:12:07 Cross-Du M
0039 327 CADREN Sebastien SCA TRIATHLON 01:29:07 SE M 24 00:23:38 00:01:36 00:50:42 00:01:12 00:12:00 Cross-Du M
0040 79 PELTIER Guillaume AS ETAPLES TRIATHLON 01:29:31 SE M 25 00:24:13 00:01:09 00:51:05 00:00:00 00:13:06 Cross-Du M
0041 110 LIONET Sebastien CMDC 01:29:36 VE M 13 00:25:24 00:01:35 00:48:13 00:01:10 00:13:16 Cross-Du M
0042 281 VAILLANT Pierre TRIATHLON CLUB DE LIEVIN 01:29:39 SE M 26 00:23:18 00:01:21 00:50:37 00:01:22 00:13:04 Cross-Du M
0043 262 PRUVOST Nicolas SKWAL ATHLON 01:29:52 SE M 27 00:26:05 00:01:23 00:48:04 00:01:19 00:13:03 Cross-Du M
0044 87 FAYOLLE Cyril TRIATHLON LITTORAL 59 01:30:03 SE M 28 00:25:03 00:01:19 00:49:12 00:01:19 00:13:12 Cross-Du M
0045 215 BOCQUET Philippe TRIATHLON CLUB BOULONNAIS 01:30:34 VE M 14 00:24:53 00:02:01 00:49:34 00:01:16 00:12:53 Cross-Du M
0046 254 DUCROCQ Anthony TRIATHLON CLUB BOULONNAIS 01:30:34 SE M 29 00:25:37 00:01:38 00:48:32 00:01:25 00:13:24 Cross-Du M
0047 361 WAELES Olivier TRIATHLON LITTORAL 59 01:30:55 SE M 30 00:25:59 00:01:14 00:49:46 00:01:02 00:12:57 Cross-Du M
0048 106 LEUWERS Peter TRIATHLON TEAM IEPER 01:31:03 SE M 31 00:25:34 00:01:33 00:49:29 00:01:20 00:13:08 Cross-Du M
0049 204 DEBOUDT Mickael 01:31:09 SE M 32 00:24:54 00:01:21 00:50:42 00:01:16 00:12:57 Cross-Du M
0050 276 VANHILLE Christophe TRIATHLON LITTORAL 59 01:31:26 VE M 15 00:26:33 00:01:28 00:48:34 00:01:27 00:13:27 Cross-Du M
0051 123 BLANCHARD Jean-yves OGS 01:32:04 SE M 33 00:26:42 00:01:44 00:48:37 00:01:27 00:13:36 Cross-Du M
0052 232 PERRIN Frederic TEAM O2PALE 01:32:12 SE M 34 00:25:58 00:01:36 00:49:44 00:01:28 00:13:28 Cross-Du M
0053 243 PAUCHET Jeremy BOST 01:32:49 SE M 35 00:26:20 00:01:35 00:49:16 00:01:32 00:14:08 Cross-Du M
0054 99 DELEPOUVE Vincent 01:32:55 JU M 3 00:24:16 00:01:30 00:54:21 00:00:59 00:11:51 Cross-Du M
0055 61 VARLET Sandy 01:33:17 VE M 16 00:25:25 00:01:20 00:52:07 00:01:21 00:13:06 Cross-Du M
0056 176 DEWAELE Michel TRIATHLON LITTORAL 59 01:33:32 VE M 17 00:26:03 00:01:13 00:51:39 00:01:09 00:13:29 Cross-Du M
0057 172 VIGNE Michel TRIATHLON LITTORAL 59 01:34:01 VE M 18 00:25:36 00:02:00 00:52:12 00:01:23 00:12:53 Cross-Du M
0058 264 MINNE Bertrand FLEURBAIX J'Y COURS 01:34:06 VE M 19 00:23:11 00:02:09 00:55:30 00:01:26 00:11:52 Cross-Du M
0059 222 JACQUEMOD Michael TRIATHLON CLUB BOULONNAIS 01:34:11 SE M 36 00:26:55 00:01:16 00:50:37 00:01:06 00:14:18 Cross-Du M
0060 58001 ?DOSSARD #58001 01:34:29 SE M 37 00:28:07 00:01:35 00:49:16 00:01:12 00:14:22 Cross-Du M
0061 182 DAUDIER Tristan 01:34:30 SE M 38 00:28:07 00:01:35 00:49:16 00:00:00 00:15:34 Cross-Du M
0062 384 TITELOUZE DE GOURNAY Aurélien 01:34:45 SE M 39 00:26:31 00:01:53 00:52:22 00:01:12 00:12:50 Cross-Du M
0063 375 VANPEPERSTRAETE Maxime RUNNING CLUB HONDSCHOOTE 01:34:58 SE M 40 00:25:35 00:02:02 00:51:14 00:01:07 00:15:02 Cross-Du M
0064 390 MAHROUG Elhadj 01:35:02 VE M 20 00:25:02 00:01:28 00:54:00 00:01:22 00:13:13 Cross-Du M
0065 81 CLAISSE Philippe 01:35:12 VE M 21 00:27:27 00:01:29 00:51:03 00:01:27 00:13:47 Cross-Du M
0066 85 BECK Alexandre 01:35:12 VE M 22 00:26:42 00:02:04 00:50:00 00:01:52 00:14:36 Cross-Du M
0067 371 BLANCHARD Nicolas 1MAX2FORM 01:35:14 SE M 41 00:23:40 00:01:30 00:56:33 00:01:04 00:12:29 Cross-Du M
0068 39 PASCHANA Adrien 01:35:14 SE M 42 00:23:40 00:01:33 00:53:22 00:04:12 00:12:29 Cross-Du M
0069 370 GARDIN Maxime 1MAX2FORM 01:35:14 SE M 43 00:24:11 00:01:00 00:55:54 00:01:42 00:12:30 Cross-Du M
0070 140 WALLYN Stephane GPMD 01:35:18 VE M 23 00:26:45 00:01:06 00:53:18 00:01:13 00:12:59 Cross-Du M
0071 351 MORANO Emmanuel VTT SAINT AMAND LES EAUX 01:35:24 SE M 44 00:28:44 00:01:27 00:48:56 00:01:48 00:14:31 Cross-Du M
0072 261 DUCROCQ Kevin SKWAL ATHLON 01:35:36 SE M 45 00:26:06 00:01:47 00:53:07 00:01:19 00:13:19 Cross-Du M
0073 253 DUTRY Gregory EC HAZEBROUCK MERVILLE 01:35:42 SE M 46 00:26:57 00:02:17 00:51:26 00:01:30 00:13:34 Cross-Du M
0074 284 KLIS Didier US COUDEKERQUE 01:35:46 VE M 24 00:28:34 00:01:55 00:47:26 00:01:57 00:15:55 Cross-Du M
0075 287 FONTAINE Mallaury TRIATHLON CLUB DE LIEVIN 01:35:54 JU F 2 00:26:03 00:01:19 00:54:12 00:01:04 00:13:18 Cross-Du M
0076 35 SOURIS Johan AUX PAS DE COURSE / X'PLATCH 01:36:01 SE M 47 00:26:27 00:01:36 00:52:25 00:01:37 00:13:58 Cross-Du M
0077 230 BARROIS Alexandre ASUD JOGGING 01:36:02 SE M 48 00:25:13 00:01:18 00:56:32 00:01:02 00:11:57 Cross-Du M
0078 277 LIEVIN Christophe 01:36:03 SE M 49 00:27:08 00:01:21 00:52:49 00:01:12 00:13:35 Cross-Du M
0079 201 MERSSEMAN Jean-francois COURIR CANTON CASSEL 01:36:09 SE M 50 00:26:28 00:01:49 00:53:33 00:01:14 00:13:06 Cross-Du M
0080 334 LAURENTIE Yann COTE D'OPALE TRIATHLON CALAIS SAINT OMER 01:36:13 VE M 25 00:27:21 00:01:36 00:51:39 00:01:08 00:14:30 Cross-Du M
0081 21 LAMS Guenole 01:36:16 VE M 26 00:27:04 00:01:42 00:51:46 00:01:31 00:14:15 Cross-Du M
0082 137 LALAU Christophe 01:36:22 VE M 27 00:25:33 00:01:18 00:55:16 00:01:13 00:13:04 Cross-Du M
0083 357 DELAIRE Gaetan 01:36:26 VE M 28 00:26:31 00:01:51 00:53:24 00:01:17 00:13:25 Cross-Du M
0084 388 BATTEMAN William 01:36:32 SE M 51 00:27:26 00:01:51 00:49:26 00:01:57 00:15:53 Cross-Du M
0085 74 MOISSON Guillaume 01:36:36 SE M 52 00:27:03 00:01:22 00:53:19 00:01:16 00:13:38 Cross-Du M
0086 68 LAURENT Sebastien 01:36:38 SE M 53 00:28:35 00:01:56 00:50:27 00:01:29 00:14:13 Cross-Du M
0087 130 BEAURAIN Sylvain GRAVELINES TRIATHLON 01:36:45 SE M 54 00:25:38 00:01:09 00:55:17 00:01:16 00:13:27 Cross-Du M
0088 378 GUILBERT Frederic 01:36:50 SE M 55 00:28:56 00:01:09 00:51:42 00:01:11 00:13:53 Cross-Du M
0089 104 BIZ Michael TRIATHLON LITTORAL 59 01:36:58 SE M 56 00:27:11 00:01:16 00:53:03 00:01:12 00:14:18 Cross-Du M
0090 105 BIZ Delphine TRIATHLON LITTORAL 59 01:36:58 VE F 1 00:27:12 00:01:06 00:53:27 00:00:58 00:14:17 Cross-Du M
0091 1 COLPAERT Laurent 01:37:01 VE M 29 00:24:58 00:01:21 00:55:33 00:01:30 00:13:41 Cross-Du M
0092 56 NAYE Benoit TRIATHLON CLUB HAZEBROUCK 01:37:03 VE M 30 00:27:44 00:01:34 00:50:14 00:01:36 00:15:57 Cross-Du M
0093 142 LECIGNE Didier OA HAZEBROUCK 01:37:05 VE M 31 00:27:02 00:01:22 00:53:33 00:01:08 00:14:03 Cross-Du M
0094 379 MERLOT Jerome 01:37:11 SE M 57 00:27:31 00:01:22 00:51:54 00:01:24 00:15:02 Cross-Du M
0095 211 FERMON Patrick 01:37:12 VE M 32 00:27:54 00:01:33 00:53:01 00:01:14 00:13:32 Cross-Du M
0096 312 CHIARAPPA Thomas 01:37:13 SE M 58 00:23:37 00:01:21 00:57:41 00:01:24 00:13:12 Cross-Du M
0097 362 DEBAVELAERE Laurent 01:38:03 VE M 33 00:25:38 00:01:34 00:55:41 00:01:28 00:13:44 Cross-Du M
0098 274 LESAGE Dimitri 01:38:04 SE M 59 00:25:24 00:01:08 00:56:05 00:01:15 00:14:14 Cross-Du M
0099 247 BILLIN Eddy SKWAL ATHLON 01:38:08 VE M 34 00:26:55 00:01:07 00:53:39 00:01:08 00:15:20 Cross-Du M
0100 24 LECLERCQ Bruno COTE D'OPALE TRIATHLON CALAIS SAINT OMER 01:38:20 VE M 35 00:28:11 00:01:43 00:52:32 00:01:43 00:14:14 Cross-Du M
0101 249 DESOMER Sebastien TEAM O2PALE 01:38:23 SE M 60 00:25:57 00:01:16 00:55:45 00:01:08 00:14:19 Cross-Du M
0102 133 CHEMSI Jaoid 01:38:27 SE M 61 00:27:10 00:01:33 00:54:04 00:01:41 00:14:01 Cross-Du M
0103 302 COEUGNET Manu SPORT EVASION DES 2 CAPS 01:38:30 VE M 36 00:27:19 00:01:20 00:55:28 00:01:11 00:13:13 Cross-Du M
0104 331 WAESELYNCK Julien USY 01:38:35 SE M 62 00:23:41 00:02:04 00:58:40 00:01:29 00:12:43 Cross-Du M
0105 141 DOYEN Bertrand 01:38:42 VE M 37 00:27:38 00:01:48 00:53:56 00:01:24 00:13:59 Cross-Du M
0106 309 LEVEL Cedric 01:39:07 SE M 63 00:24:17 00:01:05 00:59:58 00:01:12 00:12:37 Cross-Du M
0107 152 PAGNERRE Francois 01:39:11 VE M 38 00:28:12 00:01:44 00:52:33 00:01:40 00:15:03 Cross-Du M
0108 127 LEFEBVRE Philippe TRIATHLON CLUB HAZEBROUCK 01:39:19 VE M 39 00:28:22 00:01:49 00:52:45 00:01:36 00:14:50 Cross-Du M
0109 100 DELEPOUVE Clement 01:39:27 SE M 64 00:26:17 00:01:52 00:57:28 00:00:00 00:13:50 Cross-Du M
0110 64 DECRIEM Thierry 01:39:41 VE M 40 00:26:30 00:01:10 00:56:16 00:01:08 00:14:40 Cross-Du M
0111 237 LEBEURRE Andre 01:39:49 VE M 41 00:28:14 00:01:48 00:54:07 00:01:26 00:14:15 Cross-Du M
0112 257 NEMPON Daniel SKWAL ATHLON 01:40:07 VE M 42 00:27:30 00:02:03 00:55:18 00:01:48 00:13:29 Cross-Du M
0113 320 LESAFFRE Christophe 01:40:08 VE M 43 00:28:32 00:01:46 00:53:43 00:01:16 00:14:52 Cross-Du M
0114 313 BECUWE Yannick CAPONORD 01:40:16 VE M 44 00:25:53 00:01:21 00:57:57 00:01:23 00:13:43 Cross-Du M
0115 143 DEBOFFLE Germain GPMD 01:40:22 SE M 65 00:27:39 00:02:03 00:55:50 00:01:28 00:13:25 Cross-Du M
0116 145 GUILLEMAIN Laurent GPMD 01:40:22 SE M 66 00:25:36 00:02:14 00:58:21 00:01:35 00:12:38 Cross-Du M
0117 59 LE MAITRE Sebastien SKWAL ATHLON 01:40:23 SE M 67 00:27:07 00:01:28 00:56:33 00:01:31 00:13:46 Cross-Du M
0118 212 DESMIS Antoine 01:40:30 VE M 45 00:27:02 00:01:39 00:56:48 00:01:15 00:13:48 Cross-Du M
0119 37 RYCKEBUSCH Emmanuel 01:40:55 SE M 68 00:27:28 00:01:47 00:56:25 00:01:31 00:13:46 Cross-Du M
0120 184 WARYN Mickael RUNNING CLUB HONDSCHOOTE 01:41:00 SE M 69 00:29:33 00:01:41 00:54:00 00:01:16 00:14:32 Cross-Du M
0121 304 OGES Nicolas 01:41:23 VE M 46 00:27:20 00:02:39 00:55:37 00:01:38 00:14:11 Cross-Du M
0122 273 GABORIEAU Mikael 01:41:28 VE M 47 00:27:29 00:01:22 00:57:47 00:01:02 00:13:50 Cross-Du M
0123 297 AMMEUX Freddy NON 01:41:30 VE M 48 00:28:46 00:01:35 00:54:58 00:01:24 00:14:49 Cross-Du M
0124 235 VERMEIREN Christophe ACCL ARMBOUTS CAPPEL 01:41:33 VE M 49 00:28:02 00:01:31 00:55:33 00:01:19 00:15:10 Cross-Du M
0125 156 BOURET David 01:41:39 SE M 70 00:29:59 00:01:19 00:54:12 00:01:03 00:15:08 Cross-Du M
0126 364 CHRISTIANS Fabien 01:41:49 VE M 50 00:28:56 00:02:18 00:54:20 00:02:24 00:13:54 Cross-Du M
0127 8 FIERS Johanne CASSEL VTT 01:41:55 SE M 71 00:30:00 00:02:05 00:52:39 00:01:52 00:15:21 Cross-Du M
0128 377 CORDIER Johan GPMD 01:42:08 VE M 51 00:29:15 00:02:12 00:54:40 00:01:27 00:14:36 Cross-Du M
0129 389 CLEENEWERCK Grégory 01:42:09 VE M 52 00:27:05 00:01:35 00:57:10 00:01:41 00:14:41 Cross-Du M
0130 227 PERARD Marie JOGGING CLUB LICQUOIS 01:42:10 VE F 2 00:27:00 00:01:03 00:59:11 00:01:11 00:13:46 Cross-Du M
0131 238 DELANNOY Allyson TRIATHLON CLUB BOULONNAIS 01:42:13 SE F 1 00:27:56 00:01:09 00:57:38 00:01:03 00:14:30 Cross-Du M
0132 280 TESTART Romain 01:42:18 SE M 72 00:27:53 00:02:41 00:56:08 00:01:59 00:13:38 Cross-Du M
0133 46 BOLLENGIER Christophe 01:42:26 VE M 53 00:26:58 00:01:30 00:58:56 00:01:07 00:13:56 Cross-Du M
0134 275 PELC Pascal 01:42:30 VE M 54 00:26:56 00:01:58 00:58:34 00:01:33 00:13:31 Cross-Du M
0135 363 DAROLT Laurent 01:42:34 VE M 55 00:28:57 00:02:17 00:54:22 00:02:21 00:14:38 Cross-Du M
0136 236 PETITPAS Vivien 01:42:40 SE M 73 00:27:29 00:01:42 00:58:11 00:01:23 00:13:56 Cross-Du M
0137 292 DUREZ NION Angelique GRAVELINES TRIATHLON 01:42:42 VE F 3 00:28:47 00:01:33 00:56:21 00:01:26 00:14:36 Cross-Du M
0138 58 NOVELLE Samuel CASSEL VTT 01:42:43 VE M 56 00:28:36 00:02:18 00:54:05 00:02:00 00:15:45 Cross-Du M
0139 33 VANDENBUSSCHE Johan VELO JEUNESSE GHYVELDOISE 01:43:06 SE M 74 00:28:17 00:02:21 00:56:53 00:01:50 00:13:47 Cross-Du M
0140 161 BRICHE Quentin 01:43:11 SE M 75 00:29:19 00:02:00 00:56:15 00:01:26 00:14:14 Cross-Du M
0141 55 CAGNIART Thomas OLI-COACHING 01:43:18 SE M 76 00:27:52 00:01:18 00:58:32 00:01:13 00:14:26 Cross-Du M
0142 241 DERNIS Xavier COQHARDI 01:43:22 VE M 57 00:27:23 00:02:15 00:57:01 00:02:16 00:14:29 Cross-Du M
0143 36 RYCKEBUSCH Helene 01:43:34 SE F 2 00:29:23 00:01:42 00:56:33 00:01:19 00:14:38 Cross-Du M
0144 224 BAILLET Christian SPORT PLUS 01:43:42 VE M 58 00:28:42 00:02:50 00:56:04 00:01:58 00:14:10 Cross-Du M
0145 298 PERDIGEON Maxence 01:43:52 SE M 77 00:30:22 00:02:03 00:54:01 00:01:24 00:16:03 Cross-Du M
0146 29 DURAND Gerald 01:43:55 SE M 78 00:30:16 00:02:22 00:53:58 00:01:52 00:15:29 Cross-Du M
0147 337 POUBLANC Alexis 01:43:56 SE M 79 00:30:01 00:01:36 00:53:56 00:00:00 00:18:25 Cross-Du M
0148 214 VALENTIN Julie 01:43:58 SE F 3 00:28:32 00:02:15 00:57:04 00:01:38 00:14:32 Cross-Du M
0149 158 BECK Michael 01:43:59 VE M 59 00:28:49 00:02:23 00:56:00 00:01:59 00:14:49 Cross-Du M
0150 330 DUCROCQ Lionel OPEN 01:44:02 SE M 80 00:29:55 00:03:35 00:53:02 00:02:16 00:15:16 Cross-Du M
0151 242 DEVOS Julien LES COUREURS DU HOUTLAND (LCH) 01:44:05 SE M 81 00:27:03 00:01:49 00:58:48 00:01:33 00:14:54 Cross-Du M
0152 325 CHARLON Denis TRIATHLON LITTORAL 59 01:44:15 VE M 60 00:30:51 00:01:55 00:54:51 00:01:39 00:15:00 Cross-Du M
0153 336 COLPAERT Vincent 01:44:15 SE M 82 00:29:10 00:01:27 00:56:55 00:01:34 00:15:12 Cross-Du M
0154 43 FLAMENT Nicolas 01:44:16 SE M 83 00:26:55 00:01:17 00:59:44 00:01:08 00:15:14 Cross-Du M
0155 311 MASQUELIER Nicolas 01:44:25 SE M 84 00:28:18 00:01:18 00:58:44 00:01:17 00:14:50 Cross-Du M
0156 321 ASAERT Michael 01:44:27 SE M 85 00:30:43 00:01:38 00:55:54 00:01:23 00:14:50 Cross-Du M
0157 103 LIBERT Stéphane 01:44:35 SE M 86 00:28:40 00:01:52 00:57:54 00:01:34 00:14:37 Cross-Du M
0158 289 COUPU Jose 01:44:46 VE M 61 00:28:39 00:01:19 00:57:36 00:01:22 00:15:52 Cross-Du M
0159 343 CUVILLIER Florent 01:44:55 SE M 87 00:28:53 00:03:05 00:54:48 00:02:18 00:15:52 Cross-Du M
0160 16 PLATEEL Didier RUNNING CLUB BLENDECQUES 01:44:57 VE M 62 00:29:38 00:02:25 00:56:01 00:02:11 00:14:44 Cross-Du M
0161 117 PLISSON Roland 01:45:00 SE M 88 00:28:34 00:01:52 00:58:32 00:01:18 00:14:46 Cross-Du M
0162 286 DECLERCK Sebastien 01:45:02 SE M 89 00:28:54 00:01:57 00:58:48 00:01:16 00:14:09 Cross-Du M
0163 285 BLONDEZ Emmanuel 01:45:02 VE M 63 00:27:06 00:01:17 01:01:54 00:01:08 00:13:39 Cross-Du M
0164 150 BUTAEYE Laurent TC ERQUINGHEM LYS 01:45:25 VE M 64 00:30:46 00:01:52 00:55:13 00:01:28 00:16:07 Cross-Du M
0165 263 BOULANGER Bertrand FLEURBAIX J'Y COURS 01:45:38 VE M 65 00:26:57 00:03:53 00:59:13 00:00:00 00:15:36 Cross-Du M
0166 49 CANEELE Francois 01:45:40 VE M 66 00:29:42 00:02:16 00:56:07 00:01:36 00:16:01 Cross-Du M
0167 307 MARCOURT Geoffray 01:45:49 SE M 90 00:31:58 00:02:31 00:56:07 00:02:18 00:12:56 Cross-Du M
0168 335 THOMAS Francoise 01:45:51 SE F 4 00:29:37 00:01:45 00:58:16 00:01:24 00:14:52 Cross-Du M
0169 86 LEPERE Pascal 01:46:02 VE M 67 00:28:49 00:01:38 00:56:44 00:01:40 00:17:13 Cross-Du M
0170 69 CARON Alain 01:46:14 VE M 68 00:28:58 00:01:58 00:58:56 00:01:24 00:14:59 Cross-Du M
0171 65 GRUART Florent 01:46:14 SE M 91 00:29:07 00:01:43 00:59:04 00:01:26 00:14:57 Cross-Du M
0172 76 RUCKEBUSCH Eric O MAX TEAM 01:46:21 VE M 69 00:32:46 00:02:38 00:52:24 00:01:49 00:16:46 Cross-Du M
0173 23 DEFOORT Pascal 01:46:24 VE M 70 00:30:05 00:02:05 00:57:23 00:01:44 00:15:09 Cross-Du M
0174 295 BECART Jean-baptiste AAAVA 01:46:31 SE M 92 00:29:25 00:02:51 00:56:22 00:01:59 00:15:55 Cross-Du M
0175 209 SCHODET Clement 01:46:38 SE M 93 00:30:22 00:02:37 00:55:26 00:01:41 00:16:33 Cross-Du M
0176 30 VANMAIRIS William 01:46:40 VE M 71 00:29:52 00:02:21 00:55:19 00:02:06 00:17:04 Cross-Du M
0177 221 DAMMAN Cyrille CASSEL VTT 01:46:42 SE M 94 00:30:41 00:02:30 00:54:08 00:02:00 00:17:24 Cross-Du M
0178 165 THEETEN Eric 01:46:42 VE M 72 00:29:28 00:01:36 00:58:58 00:01:29 00:15:13 Cross-Du M
0179 383 DEFRANCQ Stéphane 01:46:59 VE M 73 00:27:21 00:01:50 01:01:02 00:01:55 00:14:53 Cross-Du M
0180 178 BUTEZ Bertrand COURIR A GRAVELINES 01:47:03 VE M 74 00:28:16 00:01:29 00:59:59 00:01:44 00:15:36 Cross-Du M
0181 267 DELAUTRE Annie CASSEL VTT 01:47:05 SE F 5 00:27:20 00:02:27 01:01:08 00:02:08 00:14:05 Cross-Du M
0182 266 DELAUTRE David CASSEL VTT 01:47:05 VE M 75 00:27:27 00:02:35 01:00:49 00:02:10 00:14:06 Cross-Du M
0183 62 ZOBEL Yann TRIATHLON CLUB HAZEBROUCK 01:47:25 VE M 76 00:30:27 00:02:20 00:57:22 00:02:10 00:15:08 Cross-Du M
0184 57 JORDAENS David 01:47:34 SE M 95 00:28:24 00:01:38 01:01:39 00:01:24 00:14:31 Cross-Du M
0185 160 VANDENBERGHE Jean jacques 01:47:36 VE M 77 00:29:56 00:02:02 00:58:13 00:01:13 00:16:14 Cross-Du M
0186 333 BADI Derry 01:47:38 VE M 78 00:28:40 00:01:27 01:02:24 00:01:25 00:13:45 Cross-Du M
0187 40 MAGNE Dominique 01:47:40 VE M 79 00:30:11 00:01:54 00:58:23 00:01:31 00:15:43 Cross-Du M
0188 4 VERFAILLIE Bernard 01:47:45 VE M 80 00:29:35 00:01:54 00:59:39 00:01:22 00:15:17 Cross-Du M
0189 89 DASSONNEVILLE Christophe 01:47:48 VE M 81 00:30:04 00:01:41 00:58:46 00:01:24 00:15:54 Cross-Du M
0190 245 PETIT Hubert SPORT EVASION DES 2 CAPS 01:47:51 VE M 82 00:31:57 00:02:24 00:55:59 00:02:02 00:15:31 Cross-Du M
0191 283 KLIS Thomas 01:47:55 SE M 96 00:27:08 00:02:07 00:59:47 00:02:16 00:16:39 Cross-Du M
0192 226 VANPEPERSTRAETE Eric RUNNING CLUB HONDSCHOOTE 01:48:02 VE M 83 00:29:16 00:02:15 01:00:49 00:01:19 00:14:26 Cross-Du M
0193 7 RYCKEBUSCH Patrick RUNNING CLUB BLENDECQUES 01:48:07 VE M 84 00:26:45 00:02:15 01:00:36 00:02:18 00:16:14 Cross-Du M
0194 167 VERNE Tony TYRANNOSAURES 01:48:07 VE M 85 00:28:38 00:02:38 01:00:23 00:01:55 00:14:35 Cross-Du M
0195 250 FIGOUREUX Thierry JEUNESSE CAPPELLOISE ATHLÉTISME 01:48:10 VE M 86 00:28:38 00:01:31 01:00:57 00:02:21 00:14:45 Cross-Du M
0196 113 SCHOONHEERE Jean-bernard O MAX TEAM 01:48:20 VE M 87 00:30:10 00:02:31 00:57:57 00:02:02 00:15:42 Cross-Du M
0197 198 RADTKE Morgan 01:48:20 SE M 97 00:31:02 00:01:35 00:58:41 00:01:23 00:15:42 Cross-Du M
0198 323 HANQUEZ Emmanuel SPORT EVASION DES 2 CAPS 01:48:27 VE M 88 00:31:25 00:02:26 00:57:32 00:02:10 00:14:55 Cross-Du M
0199 299 THOMAS Lydivine GRAVELINES TRIATHLON 01:48:27 SE F 6 00:29:17 00:01:22 01:01:04 00:01:16 00:15:31 Cross-Du M
0200 19 BOULOIS Jovanny 01:48:30 JU M 4 00:29:36 00:01:26 00:58:32 00:01:16 00:17:42 Cross-Du M
0201 382 MAGNIEZ Thomas 01:48:31 JU M 5 00:27:22 00:02:03 01:00:22 00:01:42 00:17:04 Cross-Du M
0202 324 DELAVAL Bastien 01:48:45 SE M 98 00:31:22 00:02:12 00:57:06 00:02:11 00:15:56 Cross-Du M
0203 96 BARBRY Ludovic ASUD JOGGING 01:48:46 SE M 99 00:29:27 00:01:27 01:00:50 00:01:28 00:15:35 Cross-Du M
0204 185 JANCZAK Ghislain 01:48:50 VE M 89 00:30:47 00:01:33 00:59:53 00:01:14 00:15:24 Cross-Du M
0205 67 DEMAN Fabien 01:48:57 SE M 100 00:30:57 00:01:25 00:58:47 00:01:24 00:16:24 Cross-Du M
0206 186 VERMERSCH Patrice 01:49:00 VE M 90 00:30:48 00:01:31 00:59:53 00:01:16 00:15:34 Cross-Du M
0207 125 CARPENTIER Jordhy 01:49:01 SE M 101 00:29:41 00:01:20 01:00:58 00:01:08 00:15:56 Cross-Du M
0208 213 ALLARD Sebastien OGS 01:49:14 VE M 91 00:28:08 00:02:45 01:00:28 00:02:17 00:15:38 Cross-Du M
0209 121 BRICHE Jonathan 01:49:31 SE M 102 00:29:21 00:01:56 01:01:56 00:01:12 00:15:09 Cross-Du M
0210 332 DEQUEKER Vincent 01:49:36 SE M 103 00:31:52 00:02:15 00:57:10 00:02:13 00:16:08 Cross-Du M
0211 73 THOMAS Caroline 01:49:38 SE F 7 00:29:17 00:01:52 01:02:34 00:01:49 00:14:09 Cross-Du M
0212 355 LECOCQ Jerome 01:49:53 SE M 104 00:31:29 00:02:03 01:00:20 00:01:35 00:14:29 Cross-Du M
0213 200 MARLARD Alice 01:50:10 SE F 8 00:31:01 00:01:39 01:01:30 00:01:19 00:14:43 Cross-Du M
0214 70 CHARLON Anne 01:50:11 VE F 4 00:29:17 00:01:51 01:02:41 00:01:43 00:14:42 Cross-Du M
0215 136 BOLLENGIER Laurent 01:50:11 VE M 92 00:30:13 00:01:27 01:01:52 00:01:15 00:15:26 Cross-Du M
0216 310 GUILLE Mathias 01:50:13 SE M 105 00:30:49 00:01:26 01:00:11 00:01:21 00:16:29 Cross-Du M
0217 271 CARBON Quentin 01:50:14 SE M 106 00:32:49 00:01:43 00:59:50 00:01:28 00:14:26 Cross-Du M
0218 50 VIEQUE Karine 01:50:16 VE F 5 00:29:09 00:02:34 01:02:15 00:01:44 00:14:37 Cross-Du M
0219 308 THOMAS Clement 01:50:24 SE M 107 00:32:14 00:02:16 00:56:43 00:01:56 00:17:17 Cross-Du M
0220 78 DEPOILLY Hervé 01:50:30 VE M 93 00:29:01 00:02:30 01:03:53 00:01:20 00:13:48 Cross-Du M
0221 44 CONNOIOUX Stephane DMN 01:50:33 SE M 108 00:30:28 00:02:48 00:58:20 00:02:18 00:16:41 Cross-Du M
0222 95 BAELEN David ASUD JOGGING 01:50:36 VE M 94 00:29:54 00:03:06 01:00:56 00:01:32 00:15:10 Cross-Du M
0223 124 ALLARD Mathieu 01:50:47 SE M 109 00:24:46 00:01:41 01:10:19 00:01:25 00:12:38 Cross-Du M
0224 223 BAILLET Laura TRIATHLON CLUB BOULONNAIS 01:50:51 SE F 9 00:30:28 00:01:14 01:01:30 00:01:09 00:16:33 Cross-Du M
0225 347 DEBEE Jean-francois 01:50:52 VE M 95 00:30:35 00:02:16 00:57:34 00:02:27 00:18:02 Cross-Du M
0226 258 VERISSIMO Sebastien JEUNESSE CAPPELLOISE ATHLÉTISME 01:50:54 SE M 110 00:29:37 00:01:41 01:03:18 00:01:19 00:15:00 Cross-Du M
0227 75 LEFEBVRE Valentin 01:51:17 SE M 111 00:29:14 00:02:48 01:01:53 00:02:17 00:15:08 Cross-Du M
0228 5 SIMON Jean-luc 01:51:19 VE M 96 00:28:48 00:01:32 01:03:39 00:01:29 00:15:54 Cross-Du M
0229 154 VIGNE Jonathan 01:51:36 SE M 112 00:33:23 00:02:14 00:57:41 00:02:22 00:15:57 Cross-Du M
0230 291 SALOME Frederic 01:51:41 SE M 113 00:31:14 00:02:22 01:01:40 00:01:31 00:14:57 Cross-Du M
0231 269 HARNOUDS Manuel AUX PAS DE COURSE / X'PLATCH 01:51:43 VE M 97 00:29:39 00:03:50 01:00:06 00:02:21 00:15:49 Cross-Du M
0232 387 SAINT-MAXIN David 01:51:52 VE M 98 00:32:27 00:02:33 00:56:16 00:02:42 00:17:56 Cross-Du M
0233 195 GERARD Olivier 01:51:55 VE M 99 00:30:12 00:02:51 01:02:29 00:01:35 00:14:49 Cross-Du M
0234 202 CAREJE Florence 01:51:57 VE F 6 00:31:22 00:02:36 01:00:03 00:01:48 00:16:10 Cross-Du M
0235 166 JANSEN Christophe 01:51:58 VE M 100 00:30:15 00:03:16 01:00:22 00:02:39 00:15:29 Cross-Du M
0236 72 BAREZ Delphine DUNKERQUE LITTORAL CYCLISME 01:52:04 VE F 7 00:33:38 00:01:53 00:58:03 00:01:34 00:16:58 Cross-Du M
0237 180 ROLIN Charlotte LES TYRANNOSAURES 01:52:09 SE F 10 00:32:42 00:01:34 01:00:35 00:01:10 00:16:11 Cross-Du M
0238 179 ROLIN David LES TYRANNOSAURES 01:52:11 VE M 101 00:32:41 00:01:25 01:00:39 00:01:17 00:16:12 Cross-Du M
0239 353 LEGRAND Philippe 01:52:16 VE M 102 00:32:08 00:02:11 01:00:33 00:01:21 00:16:05 Cross-Du M
0240 190 HENNEBIL Francois 01:52:17 VE M 103 00:30:24 00:01:53 01:02:55 00:01:35 00:15:32 Cross-Du M
0241 101 DELEPOUVE Xavier 01:52:28 VE M 104 00:28:41 00:02:54 01:03:31 00:01:48 00:15:35 Cross-Du M
0242 216 SIVY Jean-guillaume 01:52:29 VE M 105 00:31:28 00:02:07 00:59:47 00:00:00 00:19:09 Cross-Du M
0243 84 BECK Nathalie 01:52:33 SE F 11 00:31:26 00:01:37 01:02:20 00:01:12 00:15:59 Cross-Du M
0244 306 DESCHUYTTER Christophe ASDN 01:52:38 SE M 114 00:30:49 00:01:37 01:02:43 00:01:18 00:16:13 Cross-Du M
0245 155 PENEL Frederic 01:52:41 VE M 106 00:30:56 00:02:52 01:00:30 00:02:33 00:15:51 Cross-Du M
0246 265 MOREL Alain FLEURBAIX J'Y COURS 01:52:50 VE M 107 00:28:41 00:03:01 01:03:18 00:03:10 00:14:42 Cross-Du M
0247 316 THOMAS Christopher 01:53:08 SE M 115 00:31:20 00:02:19 00:59:58 00:02:14 00:17:20 Cross-Du M
0248 344 DAHLMANN Jeremy 01:53:17 SE M 116 00:29:30 00:02:30 01:03:40 00:02:38 00:15:00 Cross-Du M
0249 296 POLARD Patrick 01:53:27 VE M 108 00:30:54 00:02:39 01:01:23 00:02:13 00:16:19 Cross-Du M
0250 18 BOULOIS Sylvain 01:53:31 VE M 109 00:33:06 00:01:26 01:00:02 00:01:36 00:17:23 Cross-Du M
0251 317 VANHILLE Guillaume 01:53:52 SE M 117 00:31:17 00:02:01 01:01:39 00:02:01 00:16:56 Cross-Du M
0252 208 SCHODET Yves 01:53:52 VE M 110 00:33:02 00:02:20 00:58:43 00:02:41 00:17:08 Cross-Du M
0253 255 TOURRET Alexandre 01:53:58 SE M 118 00:30:07 00:01:40 01:04:47 00:01:32 00:15:54 Cross-Du M
0254 9 SMAGGHE Jose LES COPAINS D'ABORD 01:54:07 VE M 111 00:31:03 00:02:28 01:03:43 00:01:48 00:15:08 Cross-Du M
0255 171 VANDENABELLE David 01:54:10 VE M 112 00:30:43 00:01:22 01:02:30 00:01:27 00:18:11 Cross-Du M
0256 225 VANDERBEKEN Yannick LES COPAINS D'ABORD 01:54:16 VE M 113 00:31:44 00:01:55 01:03:39 00:01:44 00:15:16 Cross-Du M
0257 26 STRZELCZYK Laurent 01:54:25 VE M 114 00:31:00 00:03:19 01:01:07 00:02:30 00:16:30 Cross-Du M
0258 338 BRIFFAUT Christophe 01:54:40 SE M 119 00:32:21 00:00:00 01:02:52 00:02:19 00:17:09 Cross-Du M
0259 80 CLAISSE Prescillia 01:55:30 SE F 12 00:28:21 00:01:29 01:09:51 00:01:11 00:14:40 Cross-Du M
0260 268 MERSSEMAN Frederic SNCF COURIR ENSEMBLE 01:55:35 VE M 115 00:32:33 00:01:37 01:01:12 00:01:54 00:18:21 Cross-Du M
0261 41 BOURIEZ Pascal 01:55:37 VE M 116 00:31:53 00:02:48 01:01:59 00:02:10 00:16:49 Cross-Du M
0262 187 MABESOONE Vincent 01:55:53 VE M 117 00:29:09 00:01:35 01:07:06 00:01:23 00:16:40 Cross-Du M
0263 66 GRUART Thierry 01:56:03 VE M 118 00:32:57 00:02:36 00:59:37 00:02:39 00:18:16 Cross-Du M
0264 51 HIRSCH Sandra L-C-H 01:56:23 SE F 13 00:29:33 00:03:24 01:07:31 00:01:21 00:14:36 Cross-Du M
0265 52 HIRSCH Rudy 01:56:25 SE M 120 00:29:34 00:03:29 01:07:28 00:01:54 00:14:02 Cross-Du M
0266 82 FAUQUEMBERGUE Gery 01:56:38 VE M 119 00:31:06 00:01:53 01:03:11 00:01:32 00:18:57 Cross-Du M
0267 126 CASTRO Manuel 01:56:41 VE M 120 00:30:53 00:02:06 01:06:55 00:01:21 00:15:29 Cross-Du M
0268 32 DEHANDSCHOEWERCKER Sandrine 01:56:48 VE F 8 00:32:16 00:01:45 01:04:42 00:01:49 00:16:18 Cross-Du M
0269 350 DEPUYDT Marc antoine 01:56:56 SE M 121 00:30:55 00:01:29 01:05:43 00:01:42 00:17:08 Cross-Du M
0270 116 PLAISANT Anne 01:57:02 SE F 14 00:31:49 00:01:52 01:06:12 00:01:23 00:15:48 Cross-Du M
0271 115 FONTAINE Pascal 01:57:03 VE M 121 00:31:50 00:01:53 01:06:13 00:01:39 00:15:31 Cross-Du M
0272 157 VIGUERARD Guillaume 01:57:05 SE M 122 00:35:10 00:01:11 01:04:11 00:01:07 00:15:28 Cross-Du M
0273 197 BEYAERT Emilie 01:57:09 SE F 15 00:31:31 00:01:39 01:07:17 00:01:28 00:15:16 Cross-Du M
0274 294 LARDEUR Yann 01:57:09 SE M 123 00:30:39 00:01:47 01:06:19 00:01:32 00:16:53 Cross-Du M
0275 300 EECKEMAN Simon 01:57:32 SE M 124 00:31:37 00:02:15 01:03:48 00:02:38 00:17:15 Cross-Du M
0276 71 EECKEMAN Thomas 01:57:32 SE M 125 00:31:36 00:02:05 01:03:57 00:01:37 00:18:18 Cross-Du M
0277 220 BUISINE Sylvie SKWAL ATHLON 01:57:45 VE F 9 00:34:01 00:01:54 01:03:25 00:01:17 00:17:11 Cross-Du M
0278 31 RAMON Pierre O MAX TEAM 01:57:57 SE M 126 00:32:45 00:02:47 01:01:27 00:02:28 00:18:33 Cross-Du M
0279 27 BLONDE Guy 01:58:13 VE M 122 00:36:08 00:01:32 00:59:37 00:01:15 00:19:44 Cross-Du M
0280 282 VANTORRE François 01:58:27 SE M 127 00:30:05 00:02:14 01:10:30 00:01:19 00:14:21 Cross-Du M
0281 114 DUPONT Frederic 01:58:57 VE M 123 00:33:14 00:02:17 01:05:25 00:01:39 00:16:24 Cross-Du M
0282 90 BOLLENGIER-SALOME David 01:58:57 VE M 124 00:33:11 00:02:22 01:05:21 00:01:41 00:16:25 Cross-Du M
0283 329 CHAUMONT Philippe 01:59:04 SE M 128 00:32:10 00:03:47 01:04:10 00:02:33 00:16:26 Cross-Du M
0284 374 TELLIER Karl 01:59:04 VE M 125 00:33:25 00:02:09 01:05:11 00:01:49 00:16:32 Cross-Du M
0285 303 OGES Caroline 01:59:13 SE F 16 00:30:05 00:02:52 01:09:11 00:01:15 00:15:53 Cross-Du M
0286 112 BLERVAQUE Francois CMDC 01:59:17 VE M 126 00:32:50 00:03:08 01:06:12 00:02:05 00:15:04 Cross-Du M
0287 134 LEURS Ingrid 01:59:24 SE F 17 00:30:50 00:01:33 01:10:25 00:00:00 00:16:37 Cross-Du M
0288 144 VAILLANT Gonzague GPMD 02:00:18 VE M 127 00:34:37 00:04:11 01:01:47 00:03:11 00:16:33 Cross-Du M
0289 146 HOGARD Vincent GPMD 02:00:19 VE M 128 00:34:36 00:04:11 01:01:49 00:03:09 00:16:35 Cross-Du M
0290 239 VERHEYDE Jean-marie 02:00:33 VE M 129 00:31:20 00:03:31 01:06:45 00:02:23 00:16:36 Cross-Du M
0291 228 MAISON Xavier 02:01:01 SE M 129 00:34:46 00:03:51 01:01:39 00:03:19 00:17:28 Cross-Du M
0292 272 WISSOCQ Clement 02:01:02 VE M 130 00:34:50 00:03:59 01:01:29 00:03:18 00:17:27 Cross-Du M
0293 183 SMAGGHE Francois-xavier 02:01:27 SE M 130 00:35:09 00:02:28 01:04:31 00:01:37 00:17:43 Cross-Du M
0294 28 ROUSSEL Annick RUNNING CLUB BLENDECQUES 02:01:30 VE F 10 00:34:35 00:02:11 01:07:37 00:01:27 00:15:41 Cross-Du M
0295 386 RICHARD Thierry 02:01:31 VE M 131 00:30:34 00:03:05 01:09:18 00:02:22 00:16:13 Cross-Du M
0296 366 HUYGHE Fabienne 02:01:31 VE F 11 00:32:34 00:02:05 01:08:42 00:01:54 00:16:18 Cross-Du M
0297 365 LORTHIOIR Francois 02:01:31 VE M 132 00:32:35 00:02:07 01:08:40 00:01:55 00:16:16 Cross-Du M
0298 12 BECUWE David LES COPAINS D'ABORD 02:02:24 VE M 133 00:27:05 00:05:49 01:12:33 00:02:35 00:14:24 Cross-Du M
0299 356 DUFEUTRELLE Alexandre 02:02:45 SE M 131 00:33:58 00:02:02 01:07:05 00:03:10 00:16:31 Cross-Du M
0300 301 LEPRETTE Olivier 02:02:54 VE M 134 00:35:31 00:03:08 01:03:28 00:02:38 00:18:12 Cross-Du M
0301 11 DELORRIER Bernard LES COPAINS D'ABORD 02:03:09 VE M 135 00:31:30 00:01:58 01:10:18 00:02:20 00:17:06 Cross-Du M
0302 189 WRONA Virginie LES COPAINS D'ABORD 02:03:37 VE F 12 00:33:47 00:01:47 01:09:02 00:01:32 00:17:32 Cross-Du M
0303 138 LALAU Emilie 02:03:57 SE F 18 00:36:31 00:02:02 01:05:30 00:01:39 00:18:17 Cross-Du M
0304 54 NIETO Moïses 02:04:03 VE M 136 00:38:17 00:01:34 01:03:03 00:01:30 00:19:41 Cross-Du M
0305 217 VARLET Sophie 02:04:21 SE F 19 00:33:13 00:02:24 01:10:00 00:01:30 00:17:16 Cross-Du M
0306 305 LEURS Yannick 02:04:31 SE M 132 00:27:46 00:01:30 01:13:30 00:02:01 00:19:47 Cross-Du M
0307 290 LUST Marie 02:04:36 SE F 20 00:33:24 00:03:47 01:07:17 00:02:39 00:17:30 Cross-Du M
0308 17 CASTEL Laetitia 02:04:38 SE F 21 00:34:28 00:01:51 01:07:24 00:01:37 00:19:20 Cross-Du M
0309 128 MOINSE Caroline 02:04:40 VE F 13 00:35:19 00:02:50 01:07:20 00:02:25 00:16:49 Cross-Du M
0310 129 MOINSE Dany 02:04:43 VE M 137 00:35:19 00:02:49 01:07:21 00:02:33 00:16:43 Cross-Du M
0311 270 CAPPELAERE Greg 02:05:13 SE M 133 00:33:34 00:02:34 01:08:54 00:02:09 00:18:04 Cross-Du M
0312 122 GENEVEE Gaetan 02:05:13 SE M 134 00:34:47 00:03:55 01:08:16 00:02:14 00:16:04 Cross-Du M
0313 231 VOLANTI Gabrielle 02:05:27 SE F 22 00:29:43 00:02:05 01:16:49 00:01:37 00:15:15 Cross-Du M
0314 322 SPRIET Francois 02:06:21 SE M 135 00:32:57 00:05:24 01:07:37 00:03:49 00:16:36 Cross-Du M
0315 196 BOCQUET Patrice 02:06:41 VE M 138 00:31:52 00:03:10 01:10:33 00:02:52 00:18:15 Cross-Du M
0316 373 VIGNE Bernard 02:07:29 VE M 139 00:35:55 00:03:51 01:04:19 00:03:57 00:19:30 Cross-Du M
0317 205 CROGIEZ Melanie RUNNING CLUB BLENDECQUES 02:07:44 SE F 23 00:33:08 00:02:32 01:11:38 00:04:01 00:16:26 Cross-Du M
0318 206 CROGIEZ Gaetan RUNNING CLUB BLENDECQUES 02:07:44 SE M 136 00:32:18 00:03:55 01:12:49 00:02:17 00:16:27 Cross-Du M
0319 53 VANDENABEELE Franck 02:07:54 SE M 137 00:32:49 00:00:00 01:14:25 00:03:14 00:17:29 Cross-Du M
0320 14 WAYMEL Damien 02:08:17 VE M 140 00:36:23 00:03:09 01:11:12 00:02:10 00:15:24 Cross-Du M
0321 34 DELECROIX Sebastien 02:08:29 SE M 138 00:32:27 00:03:01 01:11:33 00:03:19 00:18:10 Cross-Du M
0322 169 COUBRONNE Sophie 02:08:42 SE F 24 00:36:13 00:03:26 01:08:25 00:02:37 00:18:03 Cross-Du M
0323 326 PACCOU Ludovic 02:09:09 SE M 139 00:33:12 00:03:47 01:11:09 00:02:17 00:18:46 Cross-Du M
0324 22 LAMS Carole 02:09:19 VE F 14 00:32:01 00:02:50 01:16:16 00:01:48 00:16:26 Cross-Du M
0325 109 DEQUIDT Bertrand CMDC 02:09:19 VE M 141 00:38:41 00:04:14 01:05:36 00:02:26 00:18:24 Cross-Du M
0326 102 DODIN Cyril CMDC 02:09:20 VE M 142 00:32:04 00:02:06 01:17:35 00:01:51 00:15:45 Cross-Du M
0327 252 JOSEPH Justine 02:09:52 SE F 25 00:37:39 00:01:58 01:11:34 00:02:27 00:16:17 Cross-Du M
0328 15 RAUWEL Sandrine RUNNING CLUB BLENDECQUES 02:10:14 VE F 15 00:36:22 00:03:05 01:11:12 00:01:45 00:17:51 Cross-Du M
0329 315 LECOCQ Helene 02:10:31 SE F 26 00:35:43 00:02:18 01:12:59 00:01:56 00:17:36 Cross-Du M
0330 177 DUPONT Eddy 02:11:14 SE M 140 00:38:02 00:02:34 01:08:25 00:02:26 00:19:49 Cross-Du M
0331 367 OBERT Vincent 02:11:59 SE M 141 00:34:05 00:01:29 01:13:05 00:01:39 00:21:43 Cross-Du M
0332 147 PINSEEL Thierry GPMD 02:12:18 VE M 143 00:32:57 00:04:06 01:14:06 00:02:48 00:18:23 Cross-Du M
0333 194 BECART Elsa 02:12:48 SE F 27 00:37:39 00:01:55 01:12:13 00:01:51 00:19:12 Cross-Du M
0334 162 DENECKER Regis 02:13:16 VE M 144 00:38:33 00:03:01 01:07:19 00:02:35 00:21:50 Cross-Du M
0335 234 MARCHAND Nicolas 02:13:16 SE M 142 00:38:35 00:02:51 01:07:35 00:02:20 00:21:57 Cross-Du M
0336 10 SMAGGHE Muriel LES COPAINS D'ABORD 02:13:34 VE F 16 00:30:17 00:02:52 01:23:24 00:02:16 00:14:47 Cross-Du M
0337 256 ORMSTON Damien 02:13:41 VE M 145 00:33:00 00:06:33 01:11:25 00:05:03 00:17:41 Cross-Du M
0338 376 VANPEPERSTRAETE Christelle RUNNING CLUB HONDSCHOOTE 02:13:44 VE F 17 00:31:56 00:03:22 01:19:12 00:02:00 00:17:16 Cross-Du M
0339 233 CLEENEWERCK Marylene 02:14:29 VE F 18 00:38:38 00:02:58 01:08:56 00:01:53 00:22:06 Cross-Du M
0340 77 HOUSIEAUX Jacques 02:14:47 SE M 143 00:37:05 00:02:41 01:11:35 00:02:36 00:20:52 Cross-Du M
0341 192 GRZYWACZ Antoine 02:15:27 SE M 144 00:34:20 00:01:38 01:16:15 00:02:06 00:21:11 Cross-Du M
0342 168 PERROT Matthieu 02:15:45 VE M 146 00:37:45 00:03:26 01:09:37 00:02:54 00:22:06 Cross-Du M
0343 135 FOURNIER Michel 02:16:59 VE M 147 00:36:26 00:02:27 01:15:38 00:02:07 00:20:23 Cross-Du M
0344 107 VERHULST Martine CMDC 02:17:19 VE F 19 00:37:53 00:02:36 01:15:46 00:02:13 00:18:53 Cross-Du M
0345 108 VERHULST Eric CMDC 02:17:19 VE M 148 00:37:53 00:02:40 01:15:37 00:02:27 00:18:43 Cross-Du M
0346 348 DEGOURNET Florian 02:18:05 SE M 145 00:37:58 00:02:02 01:16:57 00:01:28 00:19:41 Cross-Du M
0347 349 CYS Audrey 02:18:05 SE F 28 00:37:59 00:02:00 01:16:59 00:01:25 00:19:44 Cross-Du M
0348 380 HERAULT Caroline RUNNING CLUB BLENDECQUES 02:19:28 VE F 20 00:35:17 00:03:43 01:20:13 00:02:25 00:17:52 Cross-Du M
0349 381 WATRE Babeth RUNNING CLUB BLENDECQUES 02:19:28 VE F 21 00:35:17 00:03:41 01:20:13 00:02:25 00:17:53 Cross-Du M
0350 149 PLATEEL Philippe TYRANNOSAURES 02:20:28 VE M 149 00:38:50 00:03:33 01:08:31 00:03:08 00:26:27 Cross-Du M
0351 193 LEFRANCQ Samuel 02:20:55 SE M 146 00:28:07 00:01:34 01:34:53 00:02:17 00:14:07 Cross-Du M
0352 342 DEVULDER Philippe 02:24:06 VE M 150 00:41:11 00:05:50 01:13:13 00:03:42 00:20:12 Cross-Du M
0353 341 DEBOUDT Gilles 02:24:06 VE M 151 00:41:11 00:05:41 01:13:18 00:03:43 00:20:14 Cross-Du M
0354 83 VERNIEUWE Samuel 02:30:14 SE M 147 00:30:09 00:02:11 01:38:17 00:01:47 00:17:53 Cross-Du M
0355 352 LECHEF Benedicte 02:35:28 SE F 29 00:40:02 00:02:43 01:30:26 00:00:00 00:22:20 Cross-Du M
0356 199 COUPET Helene 02:37:21 SE F 30 00:43:21 00:02:09 01:26:53 00:01:48 00:23:12 Cross-Du M
0357 45 FOURNIER Stephanie 02:37:22 SE F 31 00:42:01 00:01:55 01:27:43 00:01:54 00:23:52 Cross-Du M
0358 163 VIEILLAME Maria CMDC 02:38:53 VE F 22 00:39:26 00:03:49 01:31:39 00:03:13 00:20:48 Cross-Du M
0359 120 SLAMBROUCK MAZY Edith COURIR AU MONT DES CATS 02:38:53 VE F 23 00:39:46 00:03:27 01:31:44 00:03:09 00:20:48 Cross-Du M
0360 111 GAILLARD Francoise CMDC 02:38:53 VE F 24 00:39:27 00:03:31 01:31:58 00:03:08 00:20:51 Cross-Du M
0361 188 LUTTUN Veronique CMDC 02:38:53 VE F 25 00:39:45 00:02:54 01:32:20 00:02:54 00:21:02 Cross-Du M
0362 346 COULIBALY Ahmed 02:39:15 SE M 148 00:34:50 00:00:00 01:40:35 00:02:49 00:21:03 Cross-Du M
DNF 6 BELLET Jean-françois LYS CALAIS TRIATHLON 00:00:00 VE M 0 00:00:00 00:00:00 00:00:00 00:00:00 00:00:00 Cross-Du M
DNF 173 CAILLIAU David 00:00:00 VE M 0 00:00:00 00:00:00 00:00:00 00:00:00 00:00:00 Cross-Du M
DNF 175 BOUCHEZ Marie-pascale LES TYRANNOSAURES 00:00:00 VE F 0 00:00:00 00:00:00 00:00:00 00:00:00 00:00:00 Cross-Du M
DNF 229 LABESSE Benoit 00:00:00 SE M 0 00:25:15 00:01:15 00:00:00 00:00:00 00:00:00 Cross-Du M
DNF 139 DEMAN Chantal COURIR AU MONT DES CATS 00:00:00 VE F 0 02:33:07 00:00:00 00:00:00 00:00:00 00:00:00 Cross-Du M
DNS 0 BUTEZ Sebastien 00:00:00 VE M 0 00:00:00 00:00:00 00:00:00 00:00:00 00:00:00 Cross-Du M
DNS 3 LOUVET Aurelien 00:00:00 SE M 0 00:00:00 00:00:00 00:00:00 00:00:00 00:00:00 Cross-Du M
DNS 13 DERHILLE Christophe 00:00:00 VE M 0 00:00:00 00:00:00 00:00:00 00:00:00 00:00:00 Cross-Du M
DNS 20 COHIN Guillaume 00:00:00 VE M 0 00:00:00 00:00:00 00:00:00 00:00:00 00:00:00 Cross-Du M
DNS 25 VAN CAPPELLEN Solange COTE D'OPALE TRIATHLON CALAIS SAINT OMER 00:00:00 VE F 0 00:00:00 00:00:00 00:00:00 00:00:00 00:00:00 Cross-Du M
DNS 38 HEMBERT Luc 00:00:00 SE M 0 00:00:00 00:00:00 00:00:00 00:00:00 00:00:00 Cross-Du M
DNS 42 DEROCHE Nicolas LES FOULÉES LOONNOISES 00:00:00 VE M 0 00:00:00 00:00:00 00:00:00 00:00:00 00:00:00 Cross-Du M
DNS 47 LE ROUX Sebastien 00:00:00 VE M 0 00:00:00 00:00:00 00:00:00 00:00:00 00:00:00 Cross-Du M
DNS 48 BEHELLE Fabrice 00:00:00 VE M 0 00:00:00 00:00:00 00:00:00 00:00:00 00:00:00 Cross-Du M
DNS 60 SEGARD Vincent 00:00:00 VE M 0 00:00:00 00:00:00 00:00:00 00:00:00 00:00:00 Cross-Du M
DNS 63 FOURNIER Vincent GRAVELINES TRIATHLON 00:00:00 VE M 0 00:00:00 00:00:00 00:00:00 00:00:00 00:00:00 Cross-Du M
DNS 88 FEKIR Mondhir 00:00:00 SE M 0 00:00:00 00:00:00 00:00:00 00:00:00 00:00:00 Cross-Du M
DNS 118 DURANEL Francois IESEG OUTDOOR 00:00:00 SE M 0 00:00:00 00:00:00 00:00:00 00:00:00 00:00:00 Cross-Du M
DNS 119 DEROO Francois 00:00:00 SE M 0 00:00:00 00:00:00 00:00:00 00:00:00 00:00:00 Cross-Du M
DNS 131 SMOCH Laurent TRIATHLON LITTORAL 59 00:00:00 VE M 0 00:00:00 00:00:00 00:00:00 00:00:00 00:00:00 Cross-Du M
DNS 132 CROQUELOIS Gilles 00:00:00 VE M 0 00:00:00 00:00:00 00:00:00 00:00:00 00:00:00 Cross-Du M
DNS 159 LOISELLE Herve ACCL ARMBOUTS CAPPEL 00:00:00 VE M 0 00:00:00 00:00:00 00:00:00 00:00:00 00:00:00 Cross-Du M
DNS 164 SALOME Jacques CMDC 00:00:00 VE M 0 00:00:00 00:00:00 00:00:00 00:00:00 00:00:00 Cross-Du M
DNS 170 BOURET Sylvain 00:00:00 SE M 0 00:00:00 00:00:00 00:00:00 00:00:00 00:00:00 Cross-Du M
DNS 174 GRESSIER Laurent LES TYRANNOSAURES 00:00:00 VE M 0 00:00:00 00:00:00 00:00:00 00:00:00 00:00:00 Cross-Du M
DNS 191 LESAGE Franck TRIATHLON LITTORAL 59 00:00:00 VE M 0 00:00:00 00:00:00 00:00:00 00:00:00 00:00:00 Cross-Du M
DNS 219 BOUCHIQUET Pascal SKWAL ATHLON 00:00:00 VE M 0 00:00:00 00:00:00 00:00:00 00:00:00 00:00:00 Cross-Du M
DNS 244 GROSSEL Stephanie BOST 00:00:00 SE F 0 00:00:00 00:00:00 00:00:00 00:00:00 00:00:00 Cross-Du M
DNS 345 CUCHEVAL Mathias OSML 00:00:00 SE M 0 00:00:00 00:00:00 00:00:00 00:00:00 00:00:00 Cross-Du M